[[{"header":{"parameterUnit":"m.s-1","parameterCategory":1,"la1":30.2991,"la2":30.254,"lo1":-89.0895,"lo2":-89.0444,"dy":0.0017,"dx":0.0017,"nx":28,"ny":28,"refTime":"2025-06-14T21:00:00:Z","depth":0,"parameterNumber":2,"parameterNumberName":"U-component_of_WINDS"},"data":[0,0,0,0,0,0,0,0,0,0,0,0,0,0,0,0,0,0,0,0,0,0,0,0,0,0,0,0,0,0,0,0,0,0,0,0,0,0,0,0,0,0,0,0,0,0,0,0,0,0,0,0,0,0,0,0,0,0,0.7111,0.7112,0,0.7192,0.7193,0.7194,0.7259,0.726,0.7261,0.7261,0.7345,0.7347,0.7349,0,0,0,0,0,0,0,0,0,0,0,0,0,0.7013,0.7014,0.7111,0.7112,0.7113,0.7192,0.7193,0.7194,0.7259,0.726,0.7261,0.7262,0.7345,0.7347,0.7349,0,0,0,0,0,0,0,0,0,0,0,0,0,0.7071,0.7015,0.711,0.7155,0.7159,0.7191,0.7193,0.7194,0.7259,0.726,0.7261,0.7262,0.7344,0.7347,0.7349,0.7344,0,0,0.7356,0.7358,0,0,0,0,0,0,0,0,0.7067,0.7074,0.7147,0.7152,0.7157,0.7216,0.7189,0.7244,0.7259,0.7221,0.7261,0.7262,0.7302,0.7308,0.7321,0.7348,0.7352,0.7357,0.7358,0.7359,0.736,0,0,0,0,0,0,0,0.7063,0.7071,0.7143,0.7148,0.7154,0.7171,0.718,0.72,0.7255,0.7225,0.723,0.7238,0.7305,0.7318,0.7323,0.7353,0.7357,0.7359,0.736,0.7361,0.738,0.7379,0,0,0,0,0,0,0.7052,0.7067,0.714,0.7145,0.7114,0.7172,0.7182,0.7196,0.7255,0.7265,0.7237,0.7241,0.7314,0.732,0.7327,0.7325,0.7359,0.7361,0.7363,0.7381,0.738,0.7379,0,0,0,0,0,0,0.705,0.7058,0.7137,0.7108,0.7119,0.7172,0.7188,0.7197,0.7211,0.7264,0.7275,0.7241,0.7315,0.7323,0.7339,0.7329,0.7363,0.7365,0.7382,0.7381,0.738,0.7321,0,0,0,0,0,0,0.7047,0.7057,0.7055,0.7107,0.712,0.7148,0.7187,0.7198,0.7215,0.7221,0.7271,0.728,0.7316,0.7335,0.7342,0.7333,0.7367,0.7384,0.7382,0.738,0.7324,0.7318,0.7312,0,0,0,0,0,0.7043,0.7036,0.7055,0.7063,0.7119,0.7147,0.7155,0.7196,0.7214,0.7213,0.7247,0.7278,0.7329,0.7336,0.7344,0.7336,0.7384,0.7382,0.738,0.7327,0.7319,0.7312,0,0,0,0,0,0,0.6981,0.7043,0.7065,0.7074,0.7105,0.7158,0.7158,0.7186,0.7213,0.7217,0.7268,0.7278,0.7289,0.7314,0.7321,0.7334,0.7361,0.736,0.7317,0.731,0.7305,0.7298,0.7369,0,0,0,0,0,0.6969,0.6986,0.7039,0.7042,0.7056,0.7104,0.7118,0.7147,0.7181,0.7194,0.723,0.7262,0.7285,0.7299,0.7323,0.7328,0.734,0.7326,0.732,0.7315,0.7314,0.7318,0.7313,0.7372,0.7372,0.7372,0,0,0.6943,0.6979,0.6987,0.703,0.7058,0.7074,0.7115,0.7131,0.7144,0.7197,0.7214,0.7241,0.728,0.7291,0.7297,0.7312,0.73,0.7312,0.7308,0.7309,0.7316,0.731,0.7305,0.7371,0.7371,0.7371,0,0,0.6905,0.6933,0.6939,0.6966,0.7006,0.7038,0.7039,0.7088,0.7108,0.7126,0.7166,0.7183,0.7221,0.7248,0.7266,0.7237,0.7267,0.7244,0.7213,0.7217,0.7212,0.7208,0.7199,0.7194,0.7242,0.7242,0.7242,0,0.6868,0.6895,0.6939,0.6952,0.6971,0.7019,0.7025,0.7049,0.7095,0.7107,0.7122,0.7172,0.7201,0.7219,0.7212,0.7225,0.7228,0.7239,0.7209,0.7206,0.7203,0.7194,0.719,0.7239,0.724,0.724,0.724,0,0.6847,0.6865,0.6865,0.6908,0.6926,0.6936,0.6982,0.6995,0.7023,0.7053,0.7071,0.7108,0.7141,0.7147,0.7174,0.7168,0.7176,0.72,0.7228,0.7194,0.7186,0.7183,0.7235,0.7236,0.7237,0.7238,0,0,0.6773,0.684,0.6839,0.686,0.6908,0.6923,0.6935,0.6966,0.6977,0.7007,0.7019,0.705,0.7072,0.7093,0.7124,0.7127,0.7102,0.7151,0.7152,0.7141,0.7098,0.708,0.7076,0.7122,0.7122,0.7121,0.7095,0,0.6742,0.6767,0.6807,0.6818,0.6835,0.6882,0.6892,0.6923,0.6952,0.6971,0.7003,0.7024,0.7052,0.7065,0.707,0.7104,0.7095,0.7107,0.7134,0.7135,0.7123,0.7072,0.7053,0.7027,0.7093,0.7092,0.7092,0,0.671,0.6738,0.6751,0.6798,0.6807,0.6815,0.6848,0.6865,0.6901,0.6922,0.6945,0.6978,0.6994,0.7018,0.7041,0.7048,0.7062,0.708,0.708,0.7085,0.7111,0.7075,0.7019,0.7015,0.7088,0.7088,0.7088,0,0.6655,0.6695,0.6708,0.6724,0.6779,0.6784,0.6808,0.6845,0.6861,0.6889,0.6901,0.693,0.6947,0.6969,0.701,0.7024,0.7028,0.7056,0.7046,0.7044,0.7045,0.7044,0.699,0.7052,0.7052,0.7053,0.7053,0,0.6617,0.6623,0.6684,0.6692,0.6701,0.6747,0.6754,0.6781,0.6814,0.6828,0.687,0.6883,0.6935,0.6954,0.6986,0.7,0.7007,0.7024,0.7033,0.7021,0.7019,0.7031,0.7034,0.7052,0.7052,0.7052,0.7052,0,0.6556,0.6597,0.6615,0.6666,0.6679,0.6683,0.6726,0.6736,0.6767,0.6785,0.6792,0.6841,0.6865,0.6908,0.6944,0.6966,0.6973,0.6988,0.6961,0.6966,0.6954,0.6954,0.6906,0.6902,0.6966,0.6965,0.6965,0,0.653,0.6536,0.6587,0.66,0.6621,0.6641,0.6658,0.6704,0.672,0.6761,0.6766,0.6794,0.6818,0.6855,0.6894,0.6923,0.6938,0.6919,0.6943,0.693,0.6938,0.6937,0.6938,0.6914,0.6913,0.6912,0.6911,0,0.6478,0.6498,0.6521,0.6551,0.657,0.6596,0.6624,0.6632,0.6684,0.6699,0.6725,0.6744,0.6781,0.6808,0.6842,0.6867,0.6898,0.6904,0.6903,0.6891,0.6875,0.6884,0.6947,0.6905,0.6905,0.6906,0.6906,0.6906,0.6434,0.6441,0.6479,0.6503,0.6529,0.6554,0.6566,0.6598,0.662,0.6654,0.668,0.6703,0.6739,0.6788,0.6811,0.683,0.6844,0.6843,0.6843,0.6842,0.6837,0.6872,0.6836,0.6837,0.6837,0.6837,0.6837,0,0.6384,0.6411,0.6433,0.647,0.6489,0.6517,0.6549,0.6563,0.6583,0.6614,0.6638,0.6667,0.6694,0.6734,0.6764,0.6772,0.6787,0.6778,0.6778,0.6783,0.6823,0.682,0.6765,0.6765,0.6765,0.6766,0.6766,0.6766,0.6361,0.6375,0.64,0.6427,0.6454,0.6477,0.6493,0.6517,0.6542,0.6573,0.6595,0.6621,0.6657,0.6689,0.6715,0.6726,0.6735,0.6722,0.6738,0.6774,0.6781,0.6787,0.6785,0.6724,0.6724,0.6697,0.6697,0.6697]},{"header":{"parameterUnit":"m.s-1","parameterCategory":1,"la1":30.2991,"la2":30.254,"lo1":-89.0895,"lo2":-89.0444,"dy":0.0017,"dx":0.0017,"nx":28,"ny":28,"refTime":"2025-06-14T21:00:00:Z","depth":0,"parameterNumber":3,"parameterNumberName":"V-component_of_WINDS"},"data":[0,0,0,0,0,0,0,0,0,0,0,0,0,0,0,0,0,0,0,0,0,0,0,0,0,0,0,0,0,0,0,0,0,0,0,0,0,0,0,0,0,0,0,0,0,0,0,0,0,0,0,0,0,0,0,0,0,0,2.6631,2.6631,0,2.6659,2.666,2.666,2.6688,2.6688,2.6688,2.6689,2.6715,2.6716,2.6716,0,0,0,0,0,0,0,0,0,0,0,0,0,2.6598,2.6598,2.6631,2.6631,2.6632,2.6659,2.666,2.666,2.6688,2.6688,2.6689,2.6689,2.6715,2.6716,2.6716,0,0,0,0,0,0,0,0,0,0,0,0,0,2.6618,2.6598,2.6631,2.6649,2.6651,2.6659,2.666,2.666,2.6688,2.6688,2.6689,2.6689,2.6715,2.6715,2.6716,2.6708,0,0,2.6718,2.6718,0,0,0,0,0,0,0,0,2.6617,2.6619,2.6646,2.6648,2.665,2.6671,2.6658,2.6676,2.6687,2.6673,2.6689,2.6689,2.67,2.6702,2.6706,2.6709,2.6711,2.6718,2.6718,2.6718,2.6718,0,0,0,0,0,0,0,2.6615,2.6618,2.6642,2.6646,2.6649,2.6655,2.6658,2.6661,2.6683,2.6675,2.6677,2.668,2.6701,2.6705,2.6706,2.6711,2.6718,2.6718,2.6718,2.6719,2.6709,2.6709,0,0,0,0,0,0,2.6611,2.6616,2.6641,2.6643,2.6634,2.6655,2.6659,2.6663,2.6683,2.6687,2.6679,2.6681,2.6704,2.6706,2.6707,2.6699,2.6718,2.6719,2.6719,2.671,2.6709,2.6708,0,0,0,0,0,0,2.6611,2.6613,2.664,2.663,2.6634,2.6655,2.666,2.6664,2.6668,2.6687,2.669,2.668,2.6704,2.6707,2.6708,2.67,2.6719,2.6719,2.671,2.671,2.6709,2.6683,0,0,0,0,0,0,2.661,2.6613,2.6611,2.663,2.6635,2.6641,2.6659,2.6664,2.6669,2.6671,2.6688,2.6691,2.6705,2.6707,2.6708,2.6701,2.672,2.6711,2.671,2.6709,2.6684,2.6681,2.6678,0,0,0,0,0,2.6608,2.6602,2.6611,2.6613,2.6632,2.664,2.6643,2.6659,2.6668,2.6666,2.6678,2.6691,2.6701,2.6707,2.6709,2.6702,2.6712,2.671,2.6709,2.6686,2.6682,2.6678,0,0,0,0,0,0,2.658,2.6605,2.6615,2.6614,2.6625,2.6645,2.6642,2.6655,2.6662,2.6664,2.6684,2.6687,2.6686,2.6694,2.67,2.6695,2.6708,2.6707,2.669,2.6686,2.6683,2.6681,2.672,0,0,0,0,0,2.6574,2.6579,2.66,2.6598,2.6603,2.6621,2.6625,2.6637,2.6649,2.6653,2.6666,2.6675,2.6681,2.6684,2.669,2.6686,2.6689,2.6682,2.6679,2.6676,2.6675,2.6673,2.6669,2.6704,2.6704,2.6704,0,0,2.6561,2.6575,2.6577,2.6592,2.6602,2.6606,2.6625,2.6628,2.6631,2.6654,2.6655,2.6665,2.6677,2.6675,2.6675,2.6682,2.6666,2.6675,2.6673,2.6673,2.6671,2.6668,2.6665,2.6703,2.6703,2.6704,0,0,2.654,2.6551,2.655,2.656,2.6575,2.6587,2.6587,2.6605,2.6612,2.6615,2.6632,2.6635,2.6644,2.6652,2.6657,2.6639,2.665,2.664,2.6624,2.6621,2.6619,2.6616,2.6609,2.6606,2.6639,2.6639,2.6639,0,2.6521,2.6529,2.6548,2.6551,2.6556,2.6578,2.6576,2.6585,2.66,2.6603,2.6611,2.6623,2.6633,2.6633,2.6628,2.6632,2.6632,2.6638,2.6618,2.6615,2.6613,2.6607,2.6604,2.6637,2.6637,2.6638,2.6638,0,2.6505,2.651,2.6508,2.6523,2.6529,2.6529,2.6548,2.6551,2.6562,2.6574,2.6576,2.6588,2.6597,2.6598,2.6609,2.6599,2.6603,2.6614,2.6628,2.6608,2.6602,2.66,2.6635,2.6636,2.6636,2.6637,0,0,2.6466,2.6493,2.6491,2.6498,2.6516,2.652,2.6521,2.6531,2.6533,2.6543,2.6543,2.6551,2.6561,2.6567,2.6579,2.6577,2.656,2.6588,2.6588,2.6582,2.655,2.6541,2.6537,2.6569,2.6568,2.6568,2.6548,0,2.6447,2.6452,2.6469,2.6467,2.6472,2.6492,2.6493,2.6503,2.6514,2.6519,2.653,2.6535,2.6548,2.6552,2.6551,2.6563,2.6554,2.6564,2.6569,2.6568,2.6564,2.6534,2.6525,2.6506,2.6546,2.6546,2.6546,0,2.6425,2.6435,2.6434,2.6452,2.6454,2.6455,2.6465,2.6469,2.6481,2.6489,2.6496,2.6509,2.6511,2.6524,2.6526,2.6532,2.6535,2.6541,2.6541,2.6541,2.6555,2.6533,2.65,2.6497,2.6542,2.6542,2.6543,0,2.6396,2.6408,2.6409,2.6415,2.6436,2.6436,2.6444,2.6457,2.6461,2.647,2.6473,2.6481,2.6485,2.6491,2.6506,2.6514,2.6505,2.652,2.6511,2.6511,2.6508,2.6507,2.6474,2.6511,2.6511,2.6511,2.6511,0,2.6372,2.637,2.6396,2.6397,2.6396,2.6415,2.6413,2.6423,2.6435,2.6437,2.6455,2.6457,2.6477,2.6481,2.6492,2.6492,2.6493,2.6499,2.6502,2.6497,2.6496,2.6498,2.65,2.651,2.651,2.651,2.6511,0,2.6338,2.6356,2.6358,2.6378,2.6383,2.6381,2.6398,2.6398,2.6411,2.6413,2.6415,2.6433,2.6438,2.6454,2.6463,2.6471,2.6466,2.6473,2.6462,2.6464,2.6454,2.6454,2.642,2.6416,2.6456,2.6456,2.6455,0,2.6322,2.6321,2.6341,2.6344,2.6352,2.6357,2.6362,2.6381,2.6385,2.6399,2.6398,2.6405,2.6411,2.6418,2.6432,2.6439,2.6445,2.6432,2.6446,2.6441,2.6444,2.6443,2.6443,2.6429,2.6429,2.6428,2.6428,0,2.629,2.6298,2.6305,2.6315,2.6321,2.6329,2.6338,2.634,2.6361,2.6365,2.6371,2.6376,2.6385,2.6391,2.64,2.6408,2.6421,2.6424,2.6422,2.6416,2.641,2.6412,2.6453,2.6424,2.6424,2.6425,2.6425,2.6425,2.6263,2.6264,2.6278,2.6285,2.6294,2.6302,2.6304,2.6317,2.6322,2.6332,2.6343,2.6347,2.6359,2.6373,2.6379,2.6383,2.639,2.6387,2.6386,2.6385,2.6382,2.641,2.6384,2.6385,2.6385,2.6385,2.6385,0,2.6232,2.6242,2.6248,2.6261,2.6266,2.6279,2.629,2.6293,2.6297,2.6308,2.6314,2.632,2.6326,2.6341,2.6348,2.6348,2.6354,2.6349,2.6348,2.635,2.6376,2.6377,2.6344,2.6344,2.6344,2.6344,2.6344,2.6344,2.6216,2.6217,2.6227,2.6233,2.6243,2.6248,2.6253,2.626,2.6269,2.6275,2.6281,2.6291,2.6302,2.631,2.6316,2.632,2.6322,2.6314,2.632,2.6344,2.6348,2.6352,2.6352,2.6315,2.6315,2.6294,2.6294,2.6293]}]]